Simultaneous Nadir Overpasses (SNOs) Predictions

Prediction of SNOs between METOP-A and NOAA-19 Satellite Orbit:

Table of predicted SNOs for the next 14.0 days since TLE Epoch: 2/24/2012
Index Date (METOP-A) Time (METOP-A) METOP-A Lat,Lon Date (NOAA-19) Time (NOAA-19) NOAA-19 Lat,Lon Distance(km) Time Diff (sec)
1 02/27/2012 23:44:57 73.59, 177.43 02/27/2012 23:43:48 73.63, 175.19 70.41 69
2 02/28/2012 00:35:49 -73.10, -16.33 02/28/2012 00:34:44 -73.08, -16.32 3.16 65
3 02/28/2012 01:26:29 73.07, 150.93 02/28/2012 01:25:42 73.06, 150.97 1.56 47
4 02/28/2012 02:17:12 -73.04, -41.81 02/28/2012 02:16:49 -73.05, -41.79 1.94 23
5 02/28/2012 03:07:51 73.05, 125.55 02/28/2012 03:07:47 73.04, 125.50 2.12 4
6 02/28/2012 03:58:34 -73.02, -67.19 02/28/2012 03:58:54 -73.03, -67.26 2.68 20
7 02/28/2012 04:49:14 72.98, 100.06 02/28/2012 04:49:51 72.96, 100.14 3.12 37
8 02/28/2012 05:39:57 -72.95, -92.68 02/28/2012 05:40:58 -72.96, -92.63 1.78 61
9 02/28/2012 06:30:41 72.71, 74.15 02/28/2012 06:31:52 72.74, 75.10 31.34 71
10 03/08/2012 20:15:30 73.20,-131.04 03/08/2012 20:14:16 73.23,-131.54 16.42 74
11 03/08/2012 21:06:15 -73.07, 36.00 03/08/2012 21:05:19 -73.08, 36.03 1.61 56
12 03/08/2012 21:56:54 73.08,-156.64 03/08/2012 21:56:18 73.06,-156.68 2.22 36
13 03/08/2012 22:47:37 -73.05, 10.62 03/08/2012 22:47:24 -73.05, 10.56 2.04 13
14 03/08/2012 23:38:17 73.01, 177.87 03/08/2012 23:38:23 73.04, 177.85 3.10 6
15 03/09/2012 00:29:00 -72.98, -14.86 03/09/2012 00:29:28 -72.98, -14.80 2.06 28
16 03/09/2012 01:19:39 72.99, 152.49 03/09/2012 01:20:27 72.96, 152.49 3.15 48
17 03/09/2012 02:10:22 -72.96, -40.24 03/09/2012 02:11:33 -72.96, -40.27 1.15 71
18 03/09/2012 03:01:14 72.31, 125.76 03/09/2012 03:02:21 72.39, 128.18 81.86 67




NCC Satellite Simultaneous Nadir Overpasses (SNOs) Prediction Service
